Zurück zum Katalog

ATLAS 5 CENTAUR DEB

LostHEO
NORAD 46639·DEBRIS·🇺🇸 United States

Gestartet Sep 17, 2014 von Cape Canaveral Space Force Station

Loading…

Nächste Überflüge (nächste 24 Stunden)

TLE

VeraltetSource: Space-Track

Epoche: Jul 19, 2023, 08:55 UTC

1 46639U 14055CP  23200.37193338 -.00000063  00000-0  00000+0 0  9996
2 46639  20.6743 244.6710 4716579 350.7325   3.0924  1.88259195 19095

Verfolge ATLAS 5 CENTAUR DEB in Echtzeit mit AllMySat

Download on the App Store